Lambertville, MI

10:41 PM EDT on September 20, 2017 (GMT -0400)
Lambertville

Weather History for KDUH - January, 2014

Change the Weather History Date:

Sunday, January 5, 2014

  Actual Average (KTOL) Record (KTOL)
Temperature  
Mean Temperature 28 °F -  
Max Temperature 33 °F 31 °F 60 °F (1997)
Min Temperature 23 °F 15 °F -10 °F (1884)
Degree Days  
Heating Degree Days 37    
Moisture  
Dew Point 29 °F    
Average Humidity 89    
Maximum Humidity 100    
Minimum Humidity 69    
Precipitation  
Precipitation 0.00 in - - ()
Sea Level Pressure  
Sea Level Pressure 29.83 in    
Wind  
Wind Speed 3 mph (NE)    
Max Wind Speed 16 mph    
Max Gust Speed 25 mph    
Visibility 3 miles    
Events Snow    
Averages and records for this station are not official NWS values.
T = Trace of Precipitation, MM = Missing Value Source: NWS Daily Summary

Daily Weather History Graph

Daily Weather History Graph

Search for Another Location

Airport or City:

Trip Planner

Search our weather history database for the weather conditions in past years. The results will help you decide how hot, cold, wet, or windy it might be!

Date:

Astronomy

Jan. 05, 2014 Rise Set
Actual Time 8:01 AM EST 5:18 PM EST
Civil Twilight 7:30 AM EST 5:49 PM EST
Nautical Twilight 6:55 AM EST 6:24 PM EST
Astronomical Twilight 6:22 AM EST 6:58 PM EST
Moon 10:38 AM EST (1/5) 10:50 PM EST (1/5)
Length of Visible Light 10h 19m
Length of Day
9h 16m
Waxing Crescent, 24% of the Moon is Illuminated
Jan 5
Waxing Crescent
Jan 7
First Quarter
Jan 15
Full
Jan 24
Last Quarter
Jan 30
New

Hourly Weather History & Observations

Time (EST) Temp. Windchill Dew Point Humidity Pressure Visibility Wind Dir Wind Speed Gust Speed Precip Events Conditions
12:15 AM 32.0 °F - 23.0 °F 69% 30.03 in 10.0 mi Calm Calm - N/A   Overcast
12:35 AM 32.0 °F - 23.0 °F 69% 30.02 in 10.0 mi Calm Calm - N/A   Overcast
12:55 AM 32.0 °F 28.7 °F 23.0 °F 69% 30.03 in 10.0 mi SSE 3.5 mph - N/A   Overcast
1:15 AM 32.0 °F - 23.0 °F 69% 30.03 in 10.0 mi Calm Calm - N/A   Overcast
1:35 AM 32.0 °F - 23.0 °F 69% 30.02 in 10.0 mi Calm Calm - N/A   Overcast
1:55 AM 32.0 °F - 24.8 °F 75% 30.02 in 10.0 mi Calm Calm - N/A   Overcast
2:15 AM 32.0 °F - 24.8 °F 75% 30.03 in 10.0 mi Calm Calm - N/A   Overcast
2:35 AM 32.0 °F 27.5 °F 26.6 °F 80% 30.03 in 10.0 mi South 4.6 mph - N/A   Overcast
2:55 AM 32.0 °F 26.4 °F 28.4 °F 87% 30.03 in 7.0 mi South 5.8 mph - N/A   Overcast
3:15 AM 32.0 °F 27.5 °F 30.2 °F 93% 30.03 in 7.0 mi South 4.6 mph - N/A   Overcast
3:35 AM 33.8 °F 30.8 °F 30.2 °F 87% 30.03 in 5.0 mi SSW 3.5 mph - N/A   Overcast
3:55 AM 33.8 °F 30.8 °F 30.2 °F 87% 30.02 in 4.0 mi SW 3.5 mph - N/A   Overcast
4:15 AM 33.8 °F - 32.0 °F 93% 30.01 in 7.0 mi Calm Calm - N/A   Overcast
4:35 AM 33.8 °F - 30.2 °F 87% 30.00 in 3.0 mi Calm Calm - N/A Snow Light Snow
4:55 AM 32.0 °F - 30.2 °F 93% 30.00 in 2.0 mi Calm Calm - N/A Snow Light Snow
5:15 AM 32.0 °F - 30.2 °F 93% 30.00 in 4.0 mi Calm Calm - N/A Snow Light Snow
5:35 AM 32.0 °F - 30.2 °F 93% 29.99 in 5.0 mi Calm Calm - N/A   Overcast
5:55 AM 32.0 °F - 30.2 °F 93% 30.00 in 5.0 mi Calm Calm - N/A   Overcast
6:15 AM 32.0 °F - 30.2 °F 93% 30.00 in 3.0 mi Calm Calm - N/A   Overcast
6:35 AM 32.0 °F - 30.2 °F 93% 30.00 in 3.0 mi Calm Calm - N/A   Overcast
6:55 AM 32.0 °F - 30.2 °F 93% 30.00 in 3.0 mi Calm Calm - N/A   Overcast
7:15 AM 32.0 °F - 30.2 °F 93% 30.00 in 3.0 mi Calm Calm - N/A   Overcast
7:35 AM 32.0 °F - 30.2 °F 93% 29.99 in 3.0 mi Calm Calm - N/A   Overcast
7:55 AM 32.0 °F 28.7 °F 30.2 °F 93% 29.99 in 2.5 mi East 3.5 mph - N/A Snow Light Snow
8:15 AM 32.0 °F - 30.2 °F 93% 30.00 in 1.2 mi Calm Calm - N/A Snow Light Snow
8:35 AM 32.0 °F - 30.2 °F 93% 30.00 in 0.8 mi Calm Calm - N/A Snow Light Snow
8:55 AM 32.0 °F - 30.2 °F 93% 30.00 in 0.5 mi Calm Calm - N/A Snow Light Snow
9:15 AM 32.0 °F - 30.2 °F 93% 30.00 in 0.8 mi Calm Calm - N/A Snow Light Snow
9:35 AM 32.0 °F - 32.0 °F 100% 29.99 in 0.8 mi Calm Calm - N/A Snow Light Snow
9:55 AM 32.0 °F 28.7 °F 32.0 °F 100% 29.98 in 1.2 mi SE 3.5 mph - N/A Snow Light Snow
10:15 AM 32.0 °F 28.7 °F 32.0 °F 100% 29.97 in 1.2 mi SE 3.5 mph - N/A Snow Light Snow
10:35 AM 32.0 °F 27.5 °F 32.0 °F 100% 29.97 in 2.0 mi SSE 4.6 mph - N/A Snow Light Snow
10:55 AM 33.8 °F 29.6 °F 32.0 °F 93% 29.96 in 3.0 mi SSE 4.6 mph - N/A   Overcast
11:15 AM 33.8 °F 30.8 °F 32.0 °F 93% 29.95 in 3.0 mi SSE 3.5 mph - N/A   Overcast
11:35 AM 33.8 °F 30.8 °F 32.0 °F 93% 29.93 in 4.0 mi SSE 3.5 mph - N/A   Overcast
11:55 AM 33.8 °F - 32.0 °F 93% 29.92 in 2.5 mi Calm Calm - N/A   Overcast
12:15 PM 33.8 °F - 32.0 °F 93% 29.90 in 1.5 mi Calm Calm - N/A Snow Light Snow
12:35 PM 33.8 °F - 32.0 °F 93% 29.87 in 1.2 mi Calm Calm - N/A Snow Light Snow
12:55 PM 33.8 °F - 32.0 °F 93% 29.85 in 1.0 mi Calm Calm - N/A Snow Light Snow
1:15 PM 33.8 °F 28.6 °F 32.0 °F 93% 29.80 in 1.0 mi NE 5.8 mph - N/A Snow Light Snow
1:35 PM 33.8 °F 29.6 °F 32.0 °F 93% 29.78 in 2.0 mi NNE 4.6 mph - N/A Snow Light Snow
1:55 PM 33.8 °F 28.6 °F 32.0 °F 93% 29.77 in 1.8 mi NE 5.8 mph - N/A Snow Light Snow
2:15 PM 33.8 °F 28.6 °F 32.0 °F 93% 29.76 in 0.8 mi NE 5.8 mph - N/A Snow Light Snow
2:35 PM 33.8 °F 27.7 °F 32.0 °F 93% 29.75 in 0.8 mi NE 6.9 mph - N/A Snow Light Snow
2:55 PM 33.8 °F 28.6 °F 32.0 °F 93% 29.74 in 1.0 mi East 5.8 mph - N/A Snow Light Snow
3:15 PM 33.8 °F 26.4 °F 32.0 °F 93% 29.73 in 0.5 mi East 9.2 mph - N/A Snow Light Snow
3:35 PM 32.0 °F 22.5 °F 32.0 °F 100% 29.69 in 1.2 mi ENE 12.7 mph 17.3 mph N/A Snow Light Snow
3:55 PM 32.0 °F 25.6 °F 30.2 °F 93% 29.70 in 0.8 mi NE 6.9 mph - N/A Snow Light Snow
4:15 PM 32.0 °F 26.4 °F 30.2 °F 93% 29.72 in 0.5 mi NNE 5.8 mph - N/A Snow Snow
4:35 PM 32.0 °F 27.5 °F 30.2 °F 93% 29.71 in 0.5 mi NE 4.6 mph - N/A Snow Snow
4:55 PM 32.0 °F 26.4 °F 30.2 °F 93% 29.69 in 0.2 mi ENE 5.8 mph 16.1 mph N/A Snow Snow
5:15 PM 32.0 °F 26.4 °F 30.2 °F 93% 29.68 in 0.5 mi NE 5.8 mph 9.2 mph N/A Snow Snow
5:35 PM 32.0 °F 24.8 °F 30.2 °F 93% 29.68 in 0.8 mi ENE 8.1 mph - N/A Snow Snow
5:55 PM 32.0 °F 24.2 °F 30.2 °F 93% 29.63 in 1.2 mi NE 9.2 mph - N/A Snow Light Snow
6:15 PM 32.0 °F 24.2 °F 30.2 °F 93% 29.65 in 1.5 mi NNE 9.2 mph - N/A Snow Light Snow
6:35 PM 32.0 °F 25.6 °F 30.2 °F 93% 29.63 in 1.5 mi NNE 6.9 mph - N/A Snow Light Snow
6:55 PM 32.0 °F 23.0 °F 28.4 °F 87% 29.61 in 1.0 mi NNE 11.5 mph 16.1 mph N/A Snow Snow
7:15 PM 32.0 °F 24.8 °F 28.4 °F 87% 29.61 in 1.2 mi North 8.1 mph - N/A Snow Light Snow
7:35 PM 32.0 °F 24.8 °F 28.4 °F 87% 29.60 in 1.8 mi North 8.1 mph - N/A Snow Light Snow
7:55 PM 30.2 °F 22.6 °F 28.4 °F 93% 29.59 in 1.5 mi NNW 8.1 mph - N/A Snow Light Snow
8:15 PM 30.2 °F 22.6 °F 26.6 °F 86% 29.57 in 1.5 mi NNW 8.1 mph - N/A Snow Light Snow
8:35 PM 30.2 °F 21.3 °F 26.6 °F 86% 29.55 in 1.2 mi North 10.4 mph - N/A Snow Light Snow
8:55 PM 30.2 °F 20.2 °F 26.6 °F 86% 29.53 in 1.5 mi North 12.7 mph 17.3 mph N/A Snow Light Snow
9:15 PM 28.4 °F 19.7 °F 26.6 °F 93% 29.53 in 1.5 mi NNW 9.2 mph 19.6 mph N/A Snow Light Snow
9:35 PM 28.4 °F 19.1 °F 26.6 °F 93% 29.53 in 1.0 mi NNW 10.4 mph 18.4 mph N/A Snow Snow
9:55 PM 28.4 °F 18.0 °F 24.8 °F 86% 29.53 in 1.0 mi NNW 12.7 mph 18.4 mph N/A Snow Snow
10:15 PM 28.4 °F 18.5 °F 23.0 °F 80% 29.52 in 1.0 mi NNW 11.5 mph 20.7 mph N/A Snow Snow
10:35 PM 26.6 °F 15.7 °F 23.0 °F 86% 29.52 in 1.0 mi NNW 12.7 mph 21.9 mph N/A Snow Snow
10:55 PM 26.6 °F 14.7 °F 21.2 °F 80% 29.53 in 1.0 mi NNW 15.0 mph 20.7 mph N/A Snow Snow
11:15 PM 24.8 °F 12.4 °F 21.2 °F 86% 29.54 in 1.0 mi NNW 15.0 mph 21.9 mph N/A Snow Light Snow
11:35 PM 23.0 °F 9.6 °F 19.4 °F 86% 29.55 in 1.8 mi NW 16.1 mph 25.3 mph N/A Snow Light Snow
11:55 PM 23.0 °F 9.6 °F 19.4 °F 86% 29.56 in 3.0 mi NW 16.1 mph 25.3 mph N/A Snow Light Snow